| time (UTC) | temp F | wind direction | speed knots | gust knots | rain 1hr in | rain 24hr in | rain mn in | humidity % | barometer mb |
| 20260506112544 | 63 | 218 | 0.9 | 3.5 | 0.00 | 0.00 | 0.00 | 91 | 1015.6 |
| 20260506112041 | 63 | 232 | 0.0 | 3.5 | 0.00 | 0.00 | 0.00 | 91 | 1015.4 |
| 20260506111551 | 63 | 250 | 0.9 | 2.6 | 0.00 | 0.00 | 0.00 | 91 | 1015.5 |
| 20260506111044 | 63 | 206 | 0.9 | 2.6 | 0.00 | 0.00 | 0.00 | 91 | 1015.7 |
| 20260506110540 | 63 | 197 | 0.9 | 3.5 | 0.00 | 0.00 | 0.00 | 91 | 1015.7 |
| 20260506110101 | 63 | 186 | 0.9 | 3.5 | 0.00 | 0.00 | 0.00 | 91 | 1015.7 |
| 20260506105544 | 63 | 202 | 0.9 | 3.5 | 0.00 | 0.00 | 0.00 | 91 | 1015.7 |
| 20260506105044 | 63 | 219 | 0.9 | 2.6 | 0.00 | 0.00 | 0.00 | 91 | 1015.6 |
| 20260506104550 | 63 | 257 | 0.9 | 2.6 | 0.00 | 0.00 | 0.00 | 91 | 1015.5 |
| 20260506104044 | 63 | 225 | 0.0 | 2.6 | 0.00 | 0.00 | 0.00 | 91 | 1015.2 |
| 20260506103543 | 63 | 247 | 1.7 | 2.6 | 0.00 | 0.00 | 0.00 | 91 | 1015.1 |
| 20260506103056 | 63 | 249 | 0.0 | 1.7 | 0.00 | 0.00 | 0.00 | 91 | 1015.2 |
| 20260506102544 | 63 | 232 | 0.9 | 3.5 | 0.00 | 0.00 | 0.00 | 91 | 1015.0 |
| 20260506102044 | 63 | 214 | 1.7 | 3.5 | 0.00 | 0.00 | 0.00 | 91 | 1014.9 |
| 20260506101602 | 63 | 168 | 1.7 | 3.5 | 0.00 | 0.00 | 0.00 | 91 | 1014.6 |
| 20260506101047 | 63 | 210 | 0.9 | 4.3 | 0.00 | 0.00 | 0.00 | 90 | 1014.5 |
| 20260506100544 | 63 | 213 | 1.7 | 4.3 | 0.00 | 0.00 | 0.00 | 90 | 1014.5 |
| 20260506100054 | 63 | 201 | 1.7 | 4.3 | 0.00 | 0.00 | 0.00 | 90 | 1014.6 |
| 20260506095543 | 63 | 259 | 1.7 | 4.3 | 0.00 | 0.00 | 0.00 | 90 | 1014.5 |
| 20260506095045 | 63 | 226 | 1.7 | 3.5 | 0.00 | 0.00 | 0.00 | 90 | 1014.5 |
| 20260506094621 | 63 | 149 | 0.9 | 2.6 | 0.00 | 0.00 | 0.00 | 90 | 1014.6 |
| 20260506094044 | 63 | 219 | 0.9 | 3.5 | 0.00 | 0.00 | 0.00 | 90 | 1014.6 |
| 20260506093545 | 63 | 214 | 0.9 | 3.5 | 0.00 | 0.00 | 0.00 | 90 | 1014.7 |
| 20260506093055 | 63 | 173 | 0.9 | 3.5 | 0.00 | 0.00 | 0.00 | 90 | 1014.6 |
| 20260506092542 | 63 | 173 | 0.9 | 3.5 | 0.00 | 0.00 | 0.00 | 90 | 1014.5 |
| 20260506092044 | 63 | 226 | 0.9 | 3.5 | 0.00 | 0.00 | 0.00 | 89 | 1014.5 |
| 20260506091554 | 63 | 234 | 0.9 | 3.5 | 0.00 | 0.00 | 0.00 | 89 | 1014.3 |
| 20260506091043 | 63 | 238 | 0.9 | 3.5 | 0.00 | 0.00 | 0.00 | 89 | 1014.3 |
| 20260506090543 | 63 | 239 | 0.9 | 2.6 | 0.00 | 0.00 | 0.00 | 88 | 1014.0 |
| 20260506090055 | 63 | 218 | 0.9 | 3.5 | 0.00 | 0.00 | 0.00 | 88 | 1014.1 |
| 20260506085542 | 63 | 194 | 0.9 | 3.5 | 0.00 | 0.00 | 0.00 | 88 | 1014.1 |
| 20260506085043 | 63 | 224 | 0.9 | 3.5 | 0.00 | 0.00 | 0.00 | 88 | 1013.9 |
| 20260506084555 | 63 | 244 | 0.9 | 2.6 | 0.00 | 0.00 | 0.00 | 88 | 1014.1 |
| 20260506084046 | 63 | 194 | 0.9 | 2.6 | 0.00 | 0.00 | 0.00 | 87 | 1014.2 |
| 20260506083543 | 63 | 195 | 0.9 | 2.6 | 0.00 | 0.00 | 0.00 | 87 | 1014.1 |
| 20260506083049 | 64 | 206 | 0.9 | 2.6 | 0.00 | 0.00 | 0.00 | 87 | 1013.9 |
| 20260506082548 | 64 | 251 | 0.9 | 3.5 | 0.00 | 0.00 | 0.00 | 87 | 1014.1 |
| 20260506082043 | 64 | 255 | 1.7 | 3.5 | 0.00 | 0.00 | 0.00 | 86 | 1014.1 |
| 20260506081551 | 63 | 236 | 0.9 | 3.5 | 0.00 | 0.00 | 0.00 | 86 | 1014.2 |
| 20260506081044 | 63 | 163 | 0.9 | 3.5 | 0.00 | 0.00 | 0.00 | 86 | 1014.2 |
| 20260506080544 | 63 | 203 | 0.9 | 1.7 | 0.00 | 0.00 | 0.00 | 86 | 1014.3 |
| 20260506073049 | 63 | 0 | 0.0 | 0.9 | 0.00 | 0.00 | 0.00 | 83 | 1014.5 |
| 20260506072543 | 63 | 0 | 0.0 | 0.9 | 0.00 | 0.00 | 0.00 | 83 | 1014.5 |
| 20260506072042 | 63 | 0 | 0.0 | 0.0 | 0.00 | 0.00 | 0.00 | 83 | 1014.5 |
| 20260506071557 | 63 | 0 | 0.0 | 0.9 | 0.00 | 0.00 | 0.00 | 82 | 1014.6 |
| 20260506071043 | 63 | 0 | 0.0 | 0.9 | 0.00 | 0.00 | 0.00 | 82 | 1014.7 |
| 20260506070543 | 63 | 0 | 0.0 | 0.9 | 0.00 | 0.00 | 0.00 | 82 | 1014.9 |
| 20260506070103 | 63 | 237 | 0.0 | 0.9 | 0.00 | 0.00 | 0.00 | 82 | 1014.9 |
| 20260506062044 | 64 | 0 | 0.0 | 0.0 | 0.00 | 0.00 | 0.00 | 78 | 1015.1 |
| 20260506061551 | 64 | 0 | 0.0 | 0.0 | 0.00 | 0.00 | 0.00 | 77 | 1015.0 |
| 20260506061043 | 65 | 0 | 0.0 | 0.9 | 0.00 | 0.00 | 0.00 | 77 | 1015.0 |
| 20260506060543 | 65 | 0 | 0.0 | 0.9 | 0.00 | 0.00 | 0.00 | 76 | 1015.1 |
| 20260506051044 | 66 | 200 | 0.0 | 2.6 | 0.00 | 0.00 | 0.00 | 71 | 1014.7 |
| 20260506050544 | 66 | 233 | 0.9 | 5.2 | 0.00 | 0.00 | 0.00 | 71 | 1014.7 |
| 20260506045043 | 66 | 249 | 1.7 | 5.2 | 0.00 | 0.00 | 0.00 | 70 | 1014.7 |
| 20260506044553 | 66 | 220 | 0.9 | 3.5 | 0.00 | 0.00 | 0.00 | 70 | 1014.9 |
| 20260506044047 | 66 | 218 | 0.0 | 3.5 | 0.00 | 0.00 | 0.00 | 69 | 1015.0 |
| 20260506043542 | 66 | 162 | 0.0 | 1.7 | 0.00 | 0.00 | 0.00 | 68 | 1015.1 |
| 20260506043048 | 66 | 0 | 0.0 | 0.9 | 0.00 | 0.00 | 0.00 | 67 | 1015.2 |
| 20260506042543 | 66 | 0 | 0.0 | 0.9 | 0.00 | 0.00 | 0.00 | 66 | 1015.2 |
| 20260506042042 | 66 | 245 | 0.0 | 1.7 | 0.00 | 0.00 | 0.00 | 66 | 1015.3 |
| 20260506041550 | 66 | 240 | 0.0 | 2.6 | 0.00 | 0.00 | 0.00 | 65 | 1015.2 |
| 20260506041043 | 66 | 0 | 0.0 | 2.6 | 0.00 | 0.00 | 0.00 | 65 | 1015.0 |
| 20260506040543 | 66 | 225 | 0.9 | 3.5 | 0.00 | 0.00 | 0.00 | 65 | 1014.8 |
| 20260506040100 | 66 | 0 | 0.9 | 3.5 | 0.00 | 0.00 | 0.00 | 65 | 1014.8 |
| 20260506035543 | 67 | 270 | 0.9 | 2.6 | 0.00 | 0.00 | 0.00 | 65 | 1014.9 |
| 20260506035043 | 66 | 244 | 0.9 | 2.6 | 0.00 | 0.00 | 0.00 | 65 | 1014.9 |
| 20260506034604 | 66 | 245 | 0.0 | 2.6 | 0.00 | 0.00 | 0.00 | 64 | 1014.6 |
| 20260506034043 | 66 | 0 | 0.0 | 2.6 | 0.00 | 0.00 | 0.00 | 64 | 1014.7 |
| 20260506033543 | 66 | 0 | 0.9 | 2.6 | 0.00 | 0.00 | 0.00 | 65 | 1015.1 |
| 20260506033052 | 66 | 0 | 0.0 | 0.9 | 0.00 | 0.00 | 0.00 | 64 | 1015.1 |
| 20260506032543 | 66 | 0 | 0.0 | 1.7 | 0.00 | 0.00 | 0.00 | 63 | 1015.4 |
| 20260506032043 | 67 | 0 | 0.0 | 1.7 | 0.00 | 0.00 | 0.00 | 63 | 1015.4 |
| 20260506031600 | 66 | 199 | 0.0 | 1.7 | 0.00 | 0.00 | 0.00 | 63 | 1015.4 |
| 20260506031046 | 66 | 0 | 0.0 | 1.7 | 0.00 | 0.00 | 0.00 | 64 | 1015.1 |
| 20260506030544 | 66 | 262 | 0.0 | 59.1 | 0.00 | 0.00 | 0.00 | 64 | 1014.8 |
| 20260506030051 | 66 | 0 | 0.9 | 59.1 | 0.00 | 0.00 | 0.00 | 65 | 1014.9 |
| 20260506025543 | 67 | 0 | 0.0 | 1.7 | 0.00 | 0.00 | 0.00 | 63 | 1015.0 |
| 20260506025043 | 67 | 0 | 0.0 | 0.9 | 0.00 | 0.00 | 0.00 | 63 | 1015.2 |
| 20260506024552 | 67 | 0 | 0.0 | 0.9 | 0.00 | 0.00 | 0.00 | 61 | 1015.0 |
| 20260506024043 | 67 | 260 | 0.0 | 0.9 | 0.00 | 0.00 | 0.00 | 61 | 1015.2 |
| 20260506023543 | 67 | 0 | 0.0 | 0.9 | 0.00 | 0.00 | 0.00 | 61 | 1014.9 |
| 20260506023053 | 67 | 264 | 0.0 | 2.6 | 0.00 | 0.00 | 0.00 | 60 | 1015.0 |
| 20260506022542 | 67 | 264 | 0.0 | 2.6 | 0.00 | 0.00 | 0.00 | 60 | 1015.0 |
| 20260506022044 | 67 | 265 | 0.0 | 0.9 | 0.00 | 0.00 | 0.00 | 61 | 1014.9 |
| 20260506021558 | 67 | 246 | 0.0 | 0.9 | 0.00 | 0.00 | 0.00 | 61 | 1014.8 |
| 20260506021044 | 67 | 0 | 0.0 | 0.9 | 0.00 | 0.00 | 0.00 | 62 | 1014.8 |
| 20260506020543 | 67 | 0 | 0.0 | 0.9 | 0.00 | 0.00 | 0.00 | 61 | 1014.8 |
| 20260506020052 | 67 | 0 | 0.0 | 0.9 | 0.00 | 0.00 | 0.00 | 60 | 1015.0 |
| 20260506015544 | 67 | 0 | 0.0 | 0.9 | 0.00 | 0.00 | 0.00 | 59 | 1014.8 |
| 20260506015044 | 67 | 0 | 0.0 | 1.7 | 0.00 | 0.00 | 0.00 | 58 | 1014.7 |
| 20260506014550 | 67 | 0 | 0.0 | 1.7 | 0.00 | 0.00 | 0.00 | 57 | 1014.7 |
| 20260506014046 | 67 | 0 | 0.0 | 0.9 | 0.00 | 0.00 | 0.00 | 58 | 1014.7 |
| 20260506013543 | 67 | 0 | 0.0 | 0.9 | 0.00 | 0.00 | 0.00 | 57 | 1014.7 |
| 20260506013053 | 68 | 0 | 0.0 | 0.9 | 0.00 | 0.00 | 0.00 | 56 | 1014.6 |
| 20260506012543 | 67 | 0 | 0.0 | 0.9 | 0.00 | 0.00 | 0.00 | 57 | 1014.7 |
| 20260506012043 | 67 | 0 | 0.0 | 0.0 | 0.00 | 0.00 | 0.00 | 58 | 1014.7 |
| 20260506011548 | 68 | 0 | 0.0 | 0.0 | 0.00 | 0.00 | 0.00 | 56 | 1014.6 |
| 20260506011043 | 68 | 0 | 0.0 | 0.0 | 0.00 | 0.00 | 0.00 | 56 | 1014.7 |
| 20260506010544 | 68 | 0 | 0.0 | 0.0 | 0.00 | 0.00 | 0.00 | 55 | 1014.6 |
| 20260506010046 | 68 | 0 | 0.0 | 0.0 | 0.00 | 0.00 | 0.00 | 54 | 1014.5 |
| 20260506005543 | 69 | 0 | 0.0 | 0.0 | 0.00 | 0.00 | 0.00 | 54 | 1014.5 |
| 20260506005043 | 69 | 0 | 0.0 | 0.0 | 0.00 | 0.00 | 0.00 | 53 | 1014.6 |
| 20260506004549 | 69 | 0 | 0.0 | 0.0 | 0.00 | 0.00 | 0.00 | 52 | 1014.6 |
| 20260506004044 | 70 | 0 | 0.0 | 0.0 | 0.00 | 0.00 | 0.00 | 51 | 1014.6 |
| 20260506003543 | 70 | 0 | 0.0 | 0.0 | 0.00 | 0.00 | 0.00 | 51 | 1014.6 |
| 20260506003053 | 71 | 0 | 0.0 | 0.0 | 0.00 | 0.00 | 0.00 | 50 | 1014.8 |
| 20260506002544 | 71 | 0 | 0.0 | 0.0 | 0.00 | 0.00 | 0.00 | 50 | 1014.9 |
| 20260506002043 | 71 | 0 | 0.0 | 0.0 | 0.00 | 0.00 | 0.00 | 49 | 1015.1 |
| 20260506001554 | 72 | 0 | 0.0 | 0.0 | 0.00 | 0.00 | 0.00 | 48 | 1015.0 |
| 20260506001043 | 72 | 0 | 0.0 | 0.0 | 0.00 | 0.00 | 0.00 | 48 | 1015.1 |
| 20260506000544 | 72 | 0 | 0.0 | 0.0 | 0.00 | 0.00 | 0.00 | 48 | 1015.2 |
| 20260506000053 | 73 | 0 | 0.0 | 0.9 | 0.00 | 0.00 | 0.00 | 47 | 1015.0 |
| 20260505235544 | 73 | 0 | 0.0 | 1.7 | 0.00 | 0.00 | 0.00 | 46 | 1015.1 |
| 20260505235044 | 74 | 0 | 0.0 | 2.6 | 0.00 | 0.00 | 0.00 | 45 | 1014.9 |
| 20260505234557 | 74 | 207 | 0.0 | 2.6 | 0.00 | 0.00 | 0.00 | 45 | 1014.9 |
| 20260505234043 | 74 | 210 | 0.9 | 7.0 | 0.00 | 0.00 | 0.00 | 45 | 1015.0 |
| 20260505233543 | 74 | 234 | 0.9 | 7.0 | 0.00 | 0.00 | 0.00 | 44 | 1015.0 |
| 20260505233108 | 74 | 201 | 1.7 | 7.0 | 0.00 | 0.00 | 0.00 | 42 | 1015.0 |
| 20260505232543 | 75 | 208 | 0.9 | 4.3 | 0.00 | 0.00 | 0.00 | 42 | 1014.9 |
| 20260505232045 | 75 | 233 | 0.9 | 4.3 | 0.00 | 0.00 | 0.00 | 43 | 1014.9 |
| 20260505231556 | 75 | 213 | 2.6 | 7.0 | 0.00 | 0.00 | 0.00 | 41 | 1015.0 |
| 20260505231043 | 76 | 226 | 3.5 | 7.8 | 0.00 | 0.00 | 0.00 | 41 | 1015.0 |
| 20260505230548 | 76 | 215 | 2.6 | 9.6 | 0.00 | 0.00 | 0.00 | 40 | 1014.9 |
| 20260505230054 | 77 | 238 | 5.2 | 9.6 | 0.00 | 0.00 | 0.00 | 39 | 1014.9 |
| 20260505225544 | 77 | 259 | 1.7 | 6.1 | 0.00 | 0.00 | 0.00 | 40 | 1014.8 |
| 20260505225042 | 77 | 231 | 2.6 | 6.1 | 0.00 | 0.00 | 0.00 | 39 | 1014.7 |
| 20260505224552 | 77 | 264 | 1.7 | 6.1 | 0.00 | 0.00 | 0.00 | 42 | 1014.6 |
| 20260505224045 | 77 | 251 | 1.7 | 6.1 | 0.00 | 0.00 | 0.00 | 43 | 1014.6 |
| 20260505223541 | 77 | 250 | 1.7 | 8.7 | 0.00 | 0.00 | 0.00 | 43 | 1014.6 |
| 20260505223054 | 77 | 139 | 1.7 | 8.7 | 0.00 | 0.00 | 0.00 | 42 | 1014.4 |
| 20260505222541 | 77 | 248 | 0.9 | 9.6 | 0.00 | 0.00 | 0.00 | 43 | 1014.5 |
| 20260505222042 | 77 | 219 | 3.5 | 9.6 | 0.00 | 0.00 | 0.00 | 43 | 1014.4 |
| 20260505221552 | 77 | 253 | 3.5 | 7.0 | 0.00 | 0.00 | 0.00 | 41 | 1014.6 |
| 20260505221041 | 78 | 253 | 2.6 | 8.7 | 0.00 | 0.00 | 0.00 | 42 | 1014.5 |
| 20260505220543 | 77 | 167 | 3.5 | 9.6 | 0.00 | 0.00 | 0.00 | 41 | 1014.4 |
| 20260505220053 | 77 | 211 | 4.3 | 9.6 | 0.00 | 0.00 | 0.00 | 40 | 1014.6 |
| 20260505215543 | 77 | 274 | 4.3 | 9.6 | 0.00 | 0.00 | 0.00 | 39 | 1014.6 |
| 20260505215044 | 78 | 264 | 4.3 | 7.0 | 0.00 | 0.00 | 0.00 | 39 | 1014.5 |
| 20260505214555 | 78 | 269 | 3.5 | 7.0 | 0.00 | 0.00 | 0.00 | 40 | 1014.4 |
| 20260505214041 | 78 | 207 | 0.9 | 7.8 | 0.00 | 0.00 | 0.00 | 40 | 1014.4 |
| 20260505213541 | 78 | 186 | 3.5 | 7.8 | 0.00 | 0.00 | 0.00 | 40 | 1014.5 |
| 20260505213052 | 78 | 259 | 2.6 | 8.7 | 0.00 | 0.00 | 0.00 | 40 | 1014.6 |
| 20260505212542 | 77 | 247 | 4.3 | 9.6 | 0.00 | 0.00 | 0.00 | 40 | 1014.5 |
| 20260505212042 | 78 | 244 | 4.3 | 9.6 | 0.00 | 0.00 | 0.00 | 39 | 1014.9 |
| 20260505211606 | 78 | 152 | 2.6 | 9.6 | 0.00 | 0.00 | 0.00 | 40 | 1014.9 |
| 20260505211045 | 78 | 181 | 5.2 | 9.6 | 0.00 | 0.00 | 0.00 | 39 | 1014.9 |
| 20260505210541 | 78 | 228 | 3.5 | 8.7 | 0.00 | 0.00 | 0.00 | 38 | 1014.8 |
| 20260505210050 | 78 | 248 | 3.5 | 8.7 | 0.00 | 0.00 | 0.00 | 39 | 1014.9 |
| 20260505205542 | 78 | 214 | 4.3 | 8.7 | 0.00 | 0.00 | 0.00 | 40 | 1014.9 |
| 20260505205041 | 79 | 181 | 4.3 | 8.7 | 0.00 | 0.00 | 0.00 | 38 | 1015.0 |
| 20260505204548 | 79 | 308 | 3.5 | 9.6 | 0.00 | 0.00 | 0.00 | 37 | 1015.0 |
| 20260505204041 | 78 | 217 | 2.6 | 10.4 | 0.00 | 0.00 | 0.00 | 41 | 1015.1 |
| 20260505203546 | 78 | 243 | 5.2 | 12.2 | 0.00 | 0.00 | 0.00 | 38 | 1015.2 |
| 20260505203052 | 79 | 230 | 2.6 | 12.2 | 0.00 | 0.00 | 0.00 | 39 | 1015.3 |
| 20260505202546 | 79 | 232 | 4.3 | 12.2 | 0.00 | 0.00 | 0.00 | 42 | 1015.2 |
| 20260505202047 | 79 | 157 | 3.5 | 7.8 | 0.00 | 0.00 | 0.00 | 37 | 1015.2 |
| 20260505201558 | 80 | 240 | 0.9 | 4.3 | 0.00 | 0.00 | 0.00 | 40 | 1015.4 |
| 20260505201042 | 80 | 34 | 0.9 | 7.0 | 0.00 | 0.00 | 0.00 | 39 | 1015.4 |
| 20260505200541 | 79 | 288 | 2.6 | 7.0 | 0.00 | 0.00 | 0.00 | 41 | 1015.4 |
| 20260505200055 | 79 | 197 | 4.3 | 7.0 | 0.00 | 0.00 | 0.00 | 39 | 1015.4 |
| 20260505195541 | 79 | 235 | 2.6 | 12.2 | 0.00 | 0.00 | 0.00 | 40 | 1015.5 |
| 20260505195041 | 79 | 293 | 4.3 | 12.2 | 0.00 | 0.00 | 0.00 | 38 | 1015.5 |
| 20260505194607 | 79 | 127 | 2.6 | 6.1 | 0.00 | 0.00 | 0.00 | 43 | 1015.6 |
| 20260505194042 | 79 | 241 | 1.7 | 7.8 | 0.00 | 0.00 | 0.00 | 40 | 1015.6 |
| 20260505193547 | 79 | 317 | 2.6 | 8.7 | 0.00 | 0.00 | 0.00 | 38 | 1015.7 |
| 20260505193054 | 79 | 146 | 1.7 | 8.7 | 0.00 | 0.00 | 0.00 | 39 | 1015.7 |
| 20260505192543 | 79 | 236 | 3.5 | 7.8 | 0.00 | 0.00 | 0.00 | 39 | 1015.8 |
| 20260505192043 | 79 | 58 | 3.5 | 7.8 | 0.00 | 0.00 | 0.00 | 44 | 1015.8 |
| 20260505191556 | 79 | 245 | 2.6 | 6.1 | 0.00 | 0.00 | 0.00 | 39 | 1015.9 |
| 20260505191042 | 80 | 100 | 0.9 | 5.2 | 0.00 | 0.00 | 0.00 | 41 | 1015.9 |
| 20260505190544 | 79 | 18 | 1.7 | 8.7 | 0.00 | 0.00 | 0.00 | 43 | 1015.9 |
| 20260505190057 | 78 | 18 | 1.7 | 10.4 | 0.00 | 0.00 | 0.00 | 42 | 1015.9 |
| 20260505185544 | 77 | 270 | 4.3 | 10.4 | 0.00 | 0.00 | 0.00 | 41 | 1015.9 |
| 20260505185044 | 77 | 241 | 3.5 | 8.7 | 0.00 | 0.00 | 0.00 | 40 | 1016.1 |
| 20260505184550 | 78 | 217 | 2.6 | 8.7 | 0.00 | 0.00 | 0.00 | 40 | 1016.3 |
| 20260505184044 | 77 | 267 | 2.6 | 8.7 | 0.00 | 0.00 | 0.00 | 42 | 1016.3 |
| 20260505183543 | 77 | 259 | 3.5 | 7.8 | 0.00 | 0.00 | 0.00 | 41 | 1016.5 |
| 20260505183050 | 77 | 214 | 2.6 | 7.8 | 0.00 | 0.00 | 0.00 | 42 | 1016.5 |
| 20260505182542 | 76 | 247 | 1.7 | 7.0 | 0.00 | 0.00 | 0.00 | 44 | 1016.5 |
| 20260505182045 | 76 | 254 | 3.5 | 8.7 | 0.00 | 0.00 | 0.00 | 45 | 1016.7 |
| 20260505181557 | 76 | 231 | 3.5 | 8.7 | 0.00 | 0.00 | 0.00 | 43 | 1016.7 |
| 20260505181045 | 76 | 252 | 1.7 | 8.7 | 0.00 | 0.00 | 0.00 | 43 | 1016.8 |
| 20260505180544 | 76 | 274 | 2.6 | 7.8 | 0.00 | 0.00 | 0.00 | 44 | 1017.0 |
| 20260505180058 | 76 | 238 | 3.5 | 7.0 | 0.00 | 0.00 | 0.00 | 44 | 1017.1 |
| 20260505175546 | 76 | 243 | 3.5 | 7.0 | 0.00 | 0.00 | 0.00 | 44 | 1017.0 |
| 20260505175043 | 76 | 299 | 3.5 | 7.0 | 0.00 | 0.00 | 0.00 | 43 | 1017.1 |
| 20260505174602 | 76 | 222 | 2.6 | 7.0 | 0.00 | 0.00 | 0.00 | 45 | 1017.2 |
| 20260505174044 | 76 | 323 | 0.9 | 7.0 | 0.00 | 0.00 | 0.00 | 46 | 1017.3 |
| 20260505173545 | 75 | 174 | 3.5 | 7.8 | 0.00 | 0.00 | 0.00 | 47 | 1017.4 |
| 20260505173049 | 75 | 193 | 3.5 | 7.8 | 0.00 | 0.00 | 0.00 | 46 | 1017.4 |
| 20260505172543 | 76 | 245 | 1.7 | 6.1 | 0.00 | 0.00 | 0.00 | 45 | 1017.4 |
| 20260505172043 | 75 | 288 | 0.9 | 11.3 | 0.00 | 0.00 | 0.00 | 49 | 1017.3 |
| 20260505171552 | 75 | 248 | 3.5 | 11.3 | 0.00 | 0.00 | 0.00 | 47 | 1017.4 |
| 20260505171045 | 75 | 267 | 3.5 | 7.8 | 0.00 | 0.00 | 0.00 | 47 | 1017.4 |
| 20260505170545 | 76 | 240 | 0.9 | 7.0 | 0.00 | 0.00 | 0.00 | 47 | 1017.5 |
| 20260505170048 | 74 | 158 | 1.7 | 7.0 | 0.00 | 0.00 | 0.00 | 54 | 1017.5 |
| 20260505165543 | 74 | 236 | 2.6 | 6.1 | 0.00 | 0.00 | 0.00 | 49 | 1017.6 |
| 20260505165044 | 74 | 285 | 1.7 | 7.0 | 0.00 | 0.00 | 0.00 | 50 | 1017.5 |
| 20260505164615 | 74 | 218 | 0.9 | 12.2 | 0.00 | 0.00 | 0.00 | 52 | 1017.5 |
| 20260505164047 | 73 | 222 | 3.5 | 12.2 | 0.00 | 0.00 | 0.00 | 53 | 1017.6 |
| 20260505163543 | 73 | 205 | 4.3 | 12.2 | 0.00 | 0.00 | 0.00 | 52 | 1017.6 |
| 20260505163054 | 73 | 203 | 3.5 | 7.8 | 0.00 | 0.00 | 0.00 | 53 | 1017.6 |
| 20260505162544 | 73 | 218 | 2.6 | 11.3 | 0.00 | 0.00 | 0.00 | 52 | 1017.6 |
| 20260505162044 | 72 | 271 | 3.5 | 11.3 | 0.00 | 0.00 | 0.00 | 53 | 1017.6 |
| 20260505161547 | 72 | 228 | 4.3 | 9.6 | 0.00 | 0.00 | 0.00 | 52 | 1017.6 |
| 20260505161044 | 72 | 176 | 3.5 | 10.4 | 0.00 | 0.00 | 0.00 | 53 | 1017.6 |
| 20260505160545 | 72 | 197 | 3.5 | 10.4 | 0.00 | 0.00 | 0.00 | 53 | 1017.6 |
| 20260505153050 | 71 | 221 | 2.6 | 7.0 | 0.00 | 0.00 | 0.00 | 53 | 1018.0 |
| 20260505152543 | 71 | 51 | 1.7 | 7.8 | 0.00 | 0.00 | 0.00 | 55 | 1018.0 |
| 20260505152040 | 70 | 319 | 1.7 | 7.8 | 0.00 | 0.00 | 0.00 | 56 | 1018.0 |
| 20260505151551 | 70 | 212 | 3.5 | 7.8 | 0.00 | 0.00 | 0.00 | 56 | 1018.0 |
| 20260505151044 | 70 | 269 | 2.6 | 7.0 | 0.00 | 0.00 | 0.00 | 60 | 1017.8 |
| 20260505150544 | 69 | 212 | 3.5 | 7.0 | 0.00 | 0.00 | 0.00 | 59 | 1017.8 |
| 20260505140544 | 65 | 186 | 0.0 | 3.5 | 0.00 | 0.00 | 0.00 | 67 | 1017.5 |
| 20260505130108 | 57 | 0 | 0.0 | 0.9 | 0.00 | 0.00 | 0.00 | 85 | 1016.5 |
| 20260505124602 | 55 | 0 | 0.0 | 0.0 | 0.00 | 0.00 | 0.00 | 91 | 1016.4 |
| 20260505124044 | 55 | 0 | 0.0 | 0.0 | 0.00 | 0.00 | 0.00 | 91 | 1016.4 |
| 20260505123543 | 54 | 0 | 0.0 | 0.0 | 0.00 | 0.00 | 0.00 | 91 | 1016.4 |
| 20260505123050 | 53 | 0 | 0.0 | 0.0 | 0.00 | 0.00 | 0.00 | 91 | 1016.4 |
| 20260505122543 | 53 | 0 | 0.0 | 0.0 | 0.00 | 0.00 | 0.00 | 91 | 1016.4 |
| 20260505122044 | 53 | 0 | 0.0 | 0.0 | 0.00 | 0.00 | 0.00 | 92 | 1016.2 |
| 20260505121550 | 52 | 0 | 0.0 | 0.0 | 0.00 | 0.00 | 0.00 | 91 | 1016.2 |
| 20260505121044 | 52 | 0 | 0.0 | 0.0 | 0.00 | 0.00 | 0.00 | 91 | 1016.3 |
| 20260505120544 | 52 | 0 | 0.0 | 0.0 | 0.00 | 0.00 | 0.00 | 91 | 1016.2 |
| 20260505120106 | 51 | 0 | 0.0 | 0.0 | 0.00 | 0.00 | 0.00 | 90 | 1016.4 |
| 20260505115543 | 51 | 0 | 0.0 | 0.0 | 0.00 | 0.00 | 0.00 | 90 | 1016.3 |
| 20260505115048 | 51 | 0 | 0.0 | 0.0 | 0.00 | 0.00 | 0.00 | 88 | 1016.3 |
| 20260505114553 | 51 | 0 | 0.0 | 0.0 | 0.00 | 0.00 | 0.00 | 88 | 1016.3 |
| 20260505114041 | 52 | 0 | 0.0 | 0.0 | 0.00 | 0.00 | 0.00 | 88 | 1016.1 |
| 20260505113545 | 52 | 0 | 0.0 | 0.0 | 0.00 | 0.00 | 0.00 | 88 | 1015.9 |
| 20260505113055 | 52 | 0 | 0.0 | 0.0 | 0.00 | 0.00 | 0.00 | 88 | 1015.8 |